Waarnemingen

Advertentie
Mijn weer
Manston, Groot Brittannië (3797): temperatuur & dauwpunt: 14.08.2018 00:00:00 - 20.08.2018 00:00:00 (BST)Manston, Groot Brittannië (3797): temperatuur -20cm & temperatuur -100cm: 14.08.2018 00:00:00 - 20.08.2018 00:00:00 (BST)Manston, Groot Brittannië (3797): windsnelheid & windstoten: 14.08.2018 00:00:00 - 20.08.2018 00:00:00 (BST)Manston, Groot Brittannië (3797): windrichting: 14.08.2018 00:00:00 - 20.08.2018 00:00:00 (BST)Manston, Groot Brittannië (3797): luchtdruk: 14.08.2018 00:00:00 - 20.08.2018 00:00:00 (BST)Manston, Groot Brittannië (3797): zicht: 14.08.2018 00:00:00 - 20.08.2018 00:00:00 (BST)Manston, Groot Brittannië (3797): Zonneschijnduur: 14.08.2018 00:00:00 - 20.08.2018 00:00:00 (BST)Manston, Groot Brittannië (3797): neerslag: 14.08.2018 00:00:00 - 20.08.2018 00:00:00 (BST)
Datum & Tijd tt [°C] td [°C] tt -20cm [°C] tt -100cm [°C] ff [km/u] ff [kn] fx [km/u] fx [kn] dd ppp [hPa] vv [km] sd [min] rr [mm]
20.08.2018 00:00:00 18,1 17,3 - - 16 9 - - ZW 1019,1 12 0 0,0
19.08.2018 23:00:00 18,2 17,4 - - 18 10 - - ZW 1019,0 12 0 0,0
19.08.2018 22:00:00 18,7 17,4 - - 21 11 - - ZW 1018,4 13 0 0,0
19.08.2018 21:00:00 19,0 17,3 - - 18 10 - - ZW 1018,3 19 0 0,0
19.08.2018 20:00:00 20,2 17,4 - - 24 13 - - ZW 1017,7 27 42 0,0
19.08.2018 19:00:00 21,3 17,3 - - 24 13 - - ZW 1017,6 23 60 0,0
19.08.2018 18:00:00 22,0 17,3 - - 24 13 - - ZW 1017,7 45 42 0,0
19.08.2018 17:00:00 21,9 17,0 - - 29 16 - - ZW 1017,9 30 18 0,0
19.08.2018 16:00:00 20,8 17,0 - - 29 16 - - ZW 1018,4 30 0 0,0
19.08.2018 15:00:00 20,3 16,8 - - 28 15 - - ZW 1018,6 28 0 0,0
19.08.2018 14:00:00 20,2 16,3 - - 31 17 54 29 ZW 1018,9 20 12 0,0
19.08.2018 13:00:00 21,9 16,5 - - 39 21 52 28 ZW 1018,8 27 36 0,0
19.08.2018 12:00:00 22,0 16,3 - - 34 18 46 25 ZW 1018,5 14 60 0,0
19.08.2018 11:00:00 21,9 16,3 - - 28 15 - - ZZW 1018,6 20 60 0,0
19.08.2018 10:00:00 20,4 15,6 18,4 17,7 28 15 46 25 ZZW 1019,1 18 42 0,0
19.08.2018 09:00:00 18,2 15,3 - - 34 18 - - ZZW 1019,3 27 6 0,0
19.08.2018 08:00:00 17,3 15,1 - - 24 13 - - ZZW 1019,7 27 18 0,0
19.08.2018 07:00:00 16,8 15,1 - - 18 10 - - ZW 1020,3 30 0 0,0
19.08.2018 06:00:00 17,0 15,0 - - 15 8 - - ZZW 1020,2 27 0 0,0
19.08.2018 05:00:00 17,3 15,5 - - 11 6 - - ZZW 1020,4 14 0 0,0
19.08.2018 04:00:00 17,6 15,4 - - 13 7 - - ZW 1020,8 17 0 0,0
19.08.2018 03:00:00 17,4 15,3 - - 13 7 - - ZZW 1021,1 15 0 0,0
19.08.2018 02:00:00 17,6 15,0 - - 15 8 - - ZW 1021,3 17 0 0,0
19.08.2018 01:00:00 17,6 14,7 - - 15 8 - - ZW 1021,4 17 - 0,0
19.08.2018 00:00:00 17,7 14,6 - - 16 9 - - ZW 1021,6 18 0 0,0
18.08.2018 23:00:00 17,7 14,7 - - 16 9 - - ZW 1021,5 16 0 0,0
18.08.2018 22:00:00 17,5 14,8 - - 15 8 - - ZZW 1021,5 20 0 0,0
18.08.2018 21:00:00 17,6 14,6 - - 13 7 - - ZW 1021,5 21 0 0,0
18.08.2018 20:00:00 18,5 14,7 - - 16 9 - - ZW 1021,2 30 6 0,0
18.08.2018 19:00:00 19,8 15,0 - - 22 12 - - ZW 1020,9 27 12 0,0
18.08.2018 18:00:00 20,1 15,0 - - 21 11 - - ZW 1020,8 22 0 0,0
18.08.2018 17:00:00 19,9 15,2 - - 22 12 - - ZZW 1020,9 20 0 0,0
18.08.2018 16:00:00 20,0 15,5 - - 22 12 - - ZZW 1021,1 20 6 0,0
18.08.2018 15:00:00 20,8 14,9 - - 24 13 - - ZW 1021,2 20 0 0,0
18.08.2018 14:00:00 20,7 14,4 - - 18 10 - - ZW 1021,5 30 0 0,0
18.08.2018 13:00:00 20,2 13,5 - - 21 11 - - ZW 1021,6 30 0 0,0
18.08.2018 12:00:00 20,4 13,9 - - 22 12 - - WZW 1021,6 45 0 0,0
18.08.2018 11:00:00 19,5 14,3 - - 24 13 - - ZW 1021,7 25 0 0,0
18.08.2018 10:00:00 18,5 14,5 17,9 17,7 24 13 - - WZW 1021,9 30 0 0,0
18.08.2018 09:00:00 17,7 13,8 - - 18 10 - - ZW 1021,7 24 6 0,0
18.08.2018 08:00:00 16,6 13,7 - - 16 9 - - ZW 1021,4 35 36 0,0
18.08.2018 07:00:00 14,2 12,4 - - 11 6 - - ZZW 1021,4 24 12 0,0
18.08.2018 06:00:00 13,5 11,7 - - 11 6 - - ZZW 1021,2 20 0 0,0
18.08.2018 05:00:00 13,6 11,6 - - 11 6 - - Z 1020,8 23 0 0,0
18.08.2018 04:00:00 14,8 12,2 - - 15 8 - - ZW 1020,8 27 0 0,0
18.08.2018 03:00:00 15,6 12,3 - - 13 7 - - WZW 1021,1 26 0 0,0
18.08.2018 02:00:00 15,8 12,8 - - 15 8 - - WZW 1021,0 28 0 0,0
18.08.2018 01:00:00 15,8 13,2 - - 16 9 - - WZW 1021,4 23 - 0,0
18.08.2018 00:00:00 15,6 13,1 - - 15 8 - - ZW 1021,3 24 0 0,0
17.08.2018 23:00:00 15,5 12,7 - - 16 9 - - ZW 1021,0 25 0 0,0
17.08.2018 22:00:00 16,1 12,4 - - 15 8 - - ZZW 1020,9 30 0 0,0
17.08.2018 21:00:00 16,5 12,2 - - 15 8 - - ZZW 1020,8 30 0 0,0
17.08.2018 20:00:00 17,5 11,8 - - 13 7 - - ZW 1020,4 40 6 0,0
17.08.2018 19:00:00 19,5 11,6 - - 18 10 - - ZW 1019,9 30 54 0,0
17.08.2018 18:00:00 20,4 10,3 - - 21 11 - - WZW 1019,6 20 36 0,0
17.08.2018 17:00:00 21,5 10,7 - - 21 11 - - W 1019,5 20 30 0,0
17.08.2018 16:00:00 20,1 10,2 - - 16 9 - - WZW 1020,0 30 6 0,0
17.08.2018 15:00:00 20,0 11,7 - - 16 9 - - ZW 1020,2 35 42 0,0
17.08.2018 14:00:00 21,1 11,4 - - 9 5 - - W 1020,3 24 18 0,0
17.08.2018 13:00:00 19,5 12,1 - - 9 5 - - W 1020,5 45 36 0,0
17.08.2018 12:00:00 20,2 11,5 - - 13 7 - - W 1020,3 25 36 0,0
17.08.2018 11:00:00 18,2 13,3 - - 11 6 - - WNW 1020,5 29 60 0,0
17.08.2018 10:00:00 17,3 13,7 17,5 17,7 13 7 - - WNW 1020,2 16 60 0,0
17.08.2018 09:00:00 16,4 13,7 - - 13 7 - - WNW 1019,7 20 60 0,0
17.08.2018 08:00:00 14,5 12,8 - - 11 6 - - W 1019,5 30 60 0,0
17.08.2018 07:00:00 12,8 11,9 - - 9 5 - - W 1018,8 25 36 0,0
17.08.2018 06:00:00 11,8 10,1 - - 9 5 - - W 1018,2 35 0 0,0
17.08.2018 05:00:00 13,3 11,2 - - 13 7 - - WNW 1017,5 30 0 0,0
17.08.2018 04:00:00 12,6 11,6 - - 11 6 - - WNW 1017,5 18 0 0,0
17.08.2018 03:00:00 12,6 11,5 - - 13 7 - - W 1017,3 18 0 0,0
17.08.2018 02:00:00 13,1 12,1 - - 15 8 - - W 1016,8 17 0 0,0
17.08.2018 01:00:00 13,1 12,4 - - 5 3 - - W 1016,8 13 - 0,0
17.08.2018 00:00:00 13,7 13,0 - - 13 7 - - WZW 1016,5 14 0 0,0
16.08.2018 23:00:00 13,6 12,7 - - 13 7 - - ZW 1016,2 19 0 0,0
16.08.2018 22:00:00 14,0 12,3 - - 13 7 - - ZW 1015,7 25 0 0,0
16.08.2018 21:00:00 14,1 12,6 - - 9 5 - - ZZW 1015,7 24 0 0,0
16.08.2018 20:00:00 14,7 13,5 - - 11 6 - - ZZW 1015,4 18 0 0,0
16.08.2018 19:00:00 14,6 13,1 - - 11 6 - - ZZW 1015,0 23 0 0,0
16.08.2018 18:00:00 14,3 13,0 - - 11 6 - - ZW 1014,8 29 0 3,8
16.08.2018 17:00:00 14,3 12,7 - - 18 10 - - W 1014,8 6 0 0,6
16.08.2018 16:00:00 19,3 15,9 - - 16 9 - - ZW 1013,9 50 0 0,0
16.08.2018 15:00:00 19,7 15,8 - - 22 12 - - ZW 1014,2 50 0 0,0
16.08.2018 14:00:00 19,9 16,2 - - 28 15 - - ZW 1014,1 17 0 0,0
16.08.2018 13:00:00 20,3 16,1 - - 26 14 - - ZZW 1013,9 30 0 0,0
16.08.2018 12:00:00 20,4 15,8 - - 31 17 - - ZW 1013,7 24 0 0,0
16.08.2018 11:00:00 19,5 15,6 - - 28 15 - - ZW 1013,7 35 0 0,0
16.08.2018 10:00:00 19,5 15,2 18,7 18,0 28 15 - - ZW 1013,9 40 24 0,0
16.08.2018 09:00:00 19,2 15,4 - - 22 12 - - ZZW 1014,0 30 0 0,0
16.08.2018 08:00:00 17,8 15,3 - - 24 13 - - ZW 1014,5 28 0 0,0
16.08.2018 07:00:00 17,4 15,4 - - 18 10 - - ZZW 1014,3 27 0 0,0
16.08.2018 06:00:00 16,9 15,2 - - 13 7 - - ZZW 1014,6 23 0 0,0
16.08.2018 05:00:00 16,4 15,4 - - 18 10 - - ZZW 1014,8 16 0 0,0
16.08.2018 04:00:00 15,7 14,6 - - 16 9 - - Z 1015,0 16 0 0,0
16.08.2018 03:00:00 16,0 14,7 - - 18 10 - - ZZW 1015,4 20 0 0,0
16.08.2018 02:00:00 14,9 13,9 - - 11 6 - - Z 1015,9 14 0 0,0
16.08.2018 01:00:00 15,6 14,4 - - 15 8 - - ZZW 1016,5 16 - 0,0
16.08.2018 00:00:00 15,9 14,6 - - 21 11 - - ZZW 1016,6 16 0 0,0
15.08.2018 23:00:00 16,1 14,5 - - 18 10 - - ZZW 1016,8 20 0 0,0
15.08.2018 22:00:00 16,7 14,2 - - 16 9 - - ZZW 1017,2 30 0 0,0
15.08.2018 21:00:00 17,4 14,8 - - 18 10 - - ZZW 1017,0 22 0 0,0
15.08.2018 20:00:00 19,2 14,5 - - 16 9 - - ZZW 1016,7 40 24 0,0
15.08.2018 19:00:00 20,8 15,3 - - 22 12 - - ZW 1016,7 35 42 0,0
15.08.2018 18:00:00 20,9 15,3 - - 24 13 - - ZW 1017,0 45 0 0,0
15.08.2018 17:00:00 21,3 15,9 - - 18 10 - - ZW 1017,5 30 0 0,0
15.08.2018 16:00:00 21,3 15,3 - - 24 13 - - ZW 1017,8 30 0 0,0
15.08.2018 15:00:00 21,8 15,4 - - 16 9 - - WZW 1018,0 35 0 0,0
15.08.2018 14:00:00 21,7 15,2 - - 21 11 - - ZW 1018,3 26 0 0,0
15.08.2018 13:00:00 20,9 15,1 - - 21 11 - - ZW 1018,5 26 6 0,0
15.08.2018 12:00:00 20,8 15,3 - - 21 11 - - ZW 1018,6 27 42 0,0
15.08.2018 11:00:00 19,8 14,9 - - 21 11 - - ZW 1018,7 27 24 0,0
15.08.2018 10:00:00 17,5 14,2 18,7 18,0 18 10 - - WZW 1019,1 24 0 0,0
15.08.2018 09:00:00 16,7 14,1 - - 15 8 - - WZW 1019,2 22 0 0,0
15.08.2018 08:00:00 16,0 14,1 - - 15 8 - - WZW 1018,8 17 0 0,0
15.08.2018 07:00:00 15,4 13,8 - - 15 8 - - ZW 1018,6 17 0 0,0
15.08.2018 06:00:00 15,2 13,6 - - 15 8 - - WZW 1018,1 17 0 0,0
15.08.2018 05:00:00 14,6 13,2 - - 11 6 - - ZW 1018,0 17 0 0,0
15.08.2018 04:00:00 14,9 13,6 - - 13 7 - - ZW 1018,0 16 0 0,0
15.08.2018 03:00:00 15,7 14,2 - - 15 8 - - W 1017,8 18 0 0,0
15.08.2018 02:00:00 16,3 15,5 - - 13 7 - - WZW 1018,0 16 0 0,0
15.08.2018 01:00:00 16,9 15,7 - - 13 7 - - W 1018,0 18 - 0,0
15.08.2018 00:00:00 18,0 16,4 - - 15 8 - - ZW 1017,8 22 0 0,0
14.08.2018 23:00:00 18,9 16,5 - - 18 10 - - WZW 1017,8 27 0 0,0
14.08.2018 22:00:00 19,1 16,4 - - 21 11 - - ZW 1017,5 27 0 0,0
14.08.2018 21:00:00 19,5 16,0 - - 15 8 - - ZZW 1017,3 35 0 0,0
14.08.2018 20:00:00 20,3 15,6 - - 15 8 - - ZZW 1016,7 28 12 0,0
14.08.2018 19:00:00 22,1 13,1 - - 11 6 - - ZZW 1016,3 40 6 0,0
14.08.2018 18:00:00 23,1 13,7 - - 11 6 - - ZW 1016,7 28 30 0,0
14.08.2018 17:00:00 21,8 14,0 - - 8 4 - - WNW 1017,0 30 6 0,0
14.08.2018 16:00:00 21,1 13,2 - - 9 5 - - W 1017,1 30 0 0,0
14.08.2018 15:00:00 20,4 13,2 - - 15 8 - - W 1017,2 35 6 0,0
14.08.2018 14:00:00 20,5 13,6 - - 15 8 - - W 1017,3 45 6 0,0
14.08.2018 13:00:00 19,8 12,8 - - 15 8 - - W 1017,0 40 0 0,0
14.08.2018 12:00:00 19,6 12,1 - - 18 10 - - WNW 1016,7 35 0 0,0
14.08.2018 11:00:00 19,7 13,0 - - 21 11 - - W 1016,4 22 60 0,0
14.08.2018 10:00:00 18,5 13,1 18,7 18,0 18 10 - - WNW 1016,0 50 60 0,0
14.08.2018 09:00:00 17,4 13,1 - - 22 12 - - WNW 1015,6 35 60 0,0
14.08.2018 08:00:00 16,7 13,2 - - 21 11 - - WNW 1015,3 30 60 0,0
14.08.2018 07:00:00 16,0 13,1 - - 16 9 - - WNW 1014,7 30 24 0,0
14.08.2018 06:00:00 15,7 13,0 - - 16 9 - - WNW 1013,9 40 0 0,0
14.08.2018 05:00:00 16,2 13,5 - - 13 7 - - WNW 1013,1 35 0 0,0
14.08.2018 04:00:00 16,9 14,0 - - 15 8 - - WNW 1012,8 35 0 0,0
14.08.2018 03:00:00 17,6 14,7 - - 16 9 - - NW 1012,5 35 0 0,0
14.08.2018 02:00:00 17,6 15,0 - - 15 8 - - WNW 1011,8 25 0 0,0
14.08.2018 01:00:00 18,1 15,5 - - 15 8 - - NW 1011,5 24 - 0,0
14.08.2018 00:00:00 18,5 16,0 - - 21 11 - - NW 1010,9 45 0 0,0

tt = temperatuur
td = dauwpunt
tt -20cm = temperatuur -20cm
tt -100cm = temperatuur -100cm
ff = windsnelheid
fx = windstoten
dd = windrichting
ppp = luchtdruk
vv = zicht
sd = Zonneschijnduur
rr = neerslag

Weerstations in de omgeving